Weather History for KBRL - January, 2015

Change the Weather History Date:

Wednesday, January 7, 2015

  Actual Average Record
Temperature  
Mean Temperature 2 °F 26 °F  
Max Temperature 12 °F 34 °F 65 °F (2008)
Min Temperature -9 °F 17 °F -17 °F (1912)
Degree Days  
Heating Degree Days 63 39  
Month to date heating degree days 332 273  
Since 1 July heating degree days 2703 2459  
Cooling Degree Days 0 0  
Month to date cooling degree days 0 0  
Year to date cooling degree days 0 0  
Moisture  
Dew Point -9 °F    
Average Humidity 68    
Maximum Humidity 79    
Minimum Humidity 57    
Precipitation  
Precipitation 0.00 in 0.04 in 0.18 in (2008)
Month to date precipitation 0.60 0.30  
Year to date precipitation 0.60 0.30  
Sea Level Pressure  
Sea Level Pressure 30.84 in    
Wind  
Wind Speed 14 mph (NW)    
Max Wind Speed 28 mph    
Max Gust Speed 39 mph    
Visibility 10 miles    
Events      
T = Trace of Precipitation, MM = Missing Value Source: NWS Daily Summary

Daily Weather History Graph

Daily Weather History Graph

Search for Another Location

Airport or City:

Trip Planner

Search our weather history database for the weather conditions in past years. The results will help you decide how hot, cold, wet, or windy it might be!

Date:

Astronomy

Jan. 07, 2015 Rise Set
Actual Time 7:28 AM CST 4:52 PM CST
Civil Twilight 6:58 AM CST 5:23 PM CST
Nautical Twilight 6:23 AM CST 5:57 PM CST
Astronomical Twilight 5:50 AM CST 6:30 PM CST
Moon 7:38 PM CST (1/7) 8:40 AM CST (1/7)
Length of Visible Light 10h 25m
Length of Day
9h 24m
Waning Gibbous, 94% of the Moon is Illuminated
Jan 7
Waning Gibbous
Jan 13
Last Quarter
Jan 20
New
Jan 26
First Quarter
Feb 3
Full

Hourly Weather History & Observations

Time (CST) Temp. Windchill Dew Point Humidity Pressure Visibility Wind Dir Wind Speed Gust Speed Precip Events Conditions
12:31 AM 10.0 °F -8.6 °F 1.0 °F 67% 30.50 in 9.0 mi NNW 19.6 mph 32.2 mph N/A   Scattered Clouds
12:53 AM 9.0 °F -11.4 °F -0.0 °F 67% 30.57 in 7.0 mi NNW 23.0 mph 39.1 mph N/A   Scattered Clouds
1:53 AM 7.0 °F -13.1 °F -2.9 °F 64% 30.62 in 10.0 mi NNW 20.7 mph 31.1 mph N/A   Partly Cloudy
2:53 AM 3.9 °F -15.6 °F -2.9 °F 73% 30.66 in 8.0 mi NNW 17.3 mph 28.8 mph N/A   Mostly Cloudy
3:22 AM 3.2 °F -15.3 °F -5.8 °F 66% 30.63 in 10.0 mi NNW 15.0 mph 28.8 mph N/A   Scattered Clouds
3:53 AM 3.0 °F -15.5 °F -5.1 °F 69% 30.69 in 10.0 mi NNW 15.0 mph 26.5 mph N/A   Partly Cloudy
4:53 AM 1.9 °F -19.2 °F -6.0 °F 69% 30.73 in 10.0 mi NNW 19.6 mph 25.3 mph N/A   Mostly Cloudy
5:53 AM 1.4 °F -16.9 °F -5.8 °F 72% 30.70 in 10.0 mi NNW 13.8 mph 23.0 mph N/A   Overcast
6:53 AM -0.0 °F -19.4 °F -6.0 °F 76% 30.80 in 6.0 mi NW 15.0 mph 25.3 mph N/A   Haze
7:53 AM -2.0 °F -22.6 °F -11.0 °F 66% 30.85 in 10.0 mi NNW 16.1 mph 31.1 mph N/A   Scattered Clouds
8:02 AM -2.0 °F -21.9 °F -11.0 °F 66% 30.80 in 10.0 mi NW 15.0 mph 24.2 mph N/A   Mostly Cloudy
8:53 AM -0.9 °F -20.6 °F -11.0 °F 62% 30.89 in 10.0 mi NW 15.0 mph 26.5 mph N/A   Mostly Cloudy
9:53 AM -0.9 °F -22.4 °F -9.9 °F 66% 30.92 in 9.0 mi NW 18.4 mph 27.6 mph N/A   Overcast
10:53 AM -0.0 °F -21.3 °F -11.0 °F 60% 30.94 in 10.0 mi NNW 18.4 mph 31.1 mph N/A   Scattered Clouds
11:18 AM -0.0 °F -21.8 °F -11.0 °F 60% 30.89 in 10.0 mi NW 19.6 mph 28.8 mph N/A   Mostly Cloudy
11:45 AM -0.0 °F -21.8 °F -11.9 °F 57% 30.89 in 10.0 mi NNW 19.6 mph 29.9 mph N/A   Scattered Clouds
11:53 AM -0.0 °F -18.0 °F -11.0 °F 60% 30.95 in 10.0 mi NW 12.7 mph 25.3 mph N/A   Partly Cloudy
12:53 PM 1.0 °F -19.3 °F -11.0 °F 57% 30.94 in 10.0 mi NW 17.3 mph 26.5 mph N/A   Partly Cloudy
1:25 PM 1.0 °F -16.6 °F -8.0 °F 66% 30.88 in 10.0 mi NW 12.7 mph 23.0 mph N/A   Mostly Cloudy
1:53 PM 1.0 °F -19.3 °F -9.0 °F 63% 30.95 in 10.0 mi NW 17.3 mph 24.2 mph N/A   Overcast
2:25 PM 1.0 °F -18.0 °F -9.9 °F 60% 30.90 in 10.0 mi NNW 15.0 mph - N/A   Scattered Clouds
2:42 PM 1.0 °F -19.3 °F -9.9 °F 60% 30.92 in 10.0 mi NW 17.3 mph 26.5 mph N/A   Mostly Cloudy
2:53 PM -0.0 °F -19.4 °F -11.0 °F 60% 30.98 in 10.0 mi NW 15.0 mph 23.0 mph N/A   Mostly Cloudy
3:07 PM 1.0 °F -18.7 °F -11.0 °F 57% 30.91 in 10.0 mi NNW 16.1 mph 24.2 mph N/A   Partly Cloudy
3:53 PM -0.0 °F -18.0 °F -11.0 °F 60% 30.98 in 10.0 mi NW 12.7 mph 20.7 mph N/A   Clear
4:53 PM -0.9 °F -18.3 °F -11.0 °F 62% 30.95 in 10.0 mi NW 11.5 mph - N/A   Clear
5:53 PM -2.9 °F -17.7 °F -11.9 °F 65% 30.95 in 10.0 mi WNW 8.1 mph - N/A   Clear
6:53 PM -4.0 °F -19.0 °F -11.9 °F 69% 30.95 in 10.0 mi WNW 8.1 mph - N/A   Clear
7:53 PM -5.8 °F -18.4 °F -13.0 °F 71% 30.86 in 10.0 mi West 5.8 mph - N/A   Clear
8:53 PM -7.1 °F -19.9 °F -13.0 °F 75% 30.90 in 10.0 mi West 5.8 mph - N/A   Clear
9:53 PM -8.0 °F -19.2 °F -13.0 °F 79% 30.87 in 10.0 mi West 4.6 mph - N/A   Clear
10:53 PM -8.0 °F -23.9 °F -13.0 °F 79% 30.85 in 10.0 mi WSW 8.1 mph - N/A   Clear
11:53 PM -9.0 °F -22.3 °F -14.1 °F 79% 30.80 in 10.0 mi SW 5.8 mph - N/A   Clear